INTELSAT 10-02

Last updated on Wed Oct 29 2025 00:02:46 GMT+0000 (Coordinated Universal Time)

1 28358U 04022A 25301.61462338 -.00000001 00000+0 00000+0 0 9998 2 28358 0.0086 123.8635 0000754 96.7903 36.8756 1.00268158 78236
UTC large
Height (km)
Speed (km/s)
/
Latitude / Longitude
Inclination (degrees)
Orbital Period (minutes)
Azimuth
Elevation
Range (km)
Doppler Factor

Next 0 passes for location: London (51.5072 / 0.1276)

Sorry there are no passes over London.